TimeMST,TemperatureF,Dew PointF,Humidity,Sea Level PressureIn,VisibilityMPH,Wind Direction,Wind SpeedMPH,Gust SpeedMPH,PrecipitationIn,Events,Conditions,WindDirDegrees,DateUTC
12:15 AM,14.0,8.6,79,30.25,-9999.0,NW,3.5,-,N/A,,Clear,310,2012-11-29 07:15:00
12:35 AM,14.0,8.6,79,30.25,-9999.0,Calm,Calm,-,N/A,,Clear,0,2012-11-29 07:35:00
12:55 AM,14.0,8.6,79,30.24,-9999.0,NNE,4.6,-,N/A,,Clear,20,2012-11-29 07:55:00
1:14 AM,14.0,8.6,79,30.24,-9999.0,Calm,Calm,-,N/A,,Clear,0,2012-11-29 08:14:00
1:35 AM,14.0,8.6,79,30.24,-9999.0,Calm,Calm,-,N/A,,Clear,0,2012-11-29 08:35:00
1:54 AM,14.0,8.6,79,30.23,-9999.0,Calm,Calm,-,N/A,,Clear,0,2012-11-29 08:54:00
2:15 AM,14.0,6.8,73,30.23,-9999.0,Calm,Calm,-,N/A,,Clear,0,2012-11-29 09:15:00
2:35 AM,14.0,8.6,79,30.23,-9999.0,Calm,Calm,-,N/A,,Clear,0,2012-11-29 09:35:00
2:55 AM,14.0,8.6,79,30.22,-9999.0,Calm,Calm,-,N/A,,Clear,0,2012-11-29 09:55:00
3:15 AM,14.0,8.6,79,30.21,-9999.0,Calm,Calm,-,N/A,,Clear,0,2012-11-29 10:15:00
3:35 AM,12.2,6.8,79,30.22,-9999.0,Calm,Calm,-,N/A,,Clear,0,2012-11-29 10:35:00
3:55 AM,14.0,8.6,79,30.21,-9999.0,WSW,3.5,-,N/A,,Clear,250,2012-11-29 10:55:00
4:15 AM,12.2,6.8,79,30.20,-9999.0,Calm,Calm,-,N/A,,Clear,0,2012-11-29 11:15:00
4:34 AM,12.2,6.8,79,30.20,-9999.0,Calm,Calm,-,N/A,,Scattered Clouds,0,2012-11-29 11:34:00
5:15 AM,17.6,10.4,73,30.21,-9999.0,Calm,Calm,-,N/A,,Overcast,0,2012-11-29 12:15:00
5:35 AM,17.6,10.4,73,30.21,-9999.0,Calm,Calm,-,N/A,,Overcast,0,2012-11-29 12:35:00
5:54 AM,17.6,10.4,73,30.21,-9999.0,Calm,Calm,-,N/A,,Overcast,0,2012-11-29 12:54:00
6:15 AM,17.6,10.4,73,30.21,-9999.0,Calm,Calm,-,N/A,,Overcast,0,2012-11-29 13:15:00
6:35 AM,17.6,10.4,73,30.20,-9999.0,Calm,Calm,-,N/A,,Overcast,0,2012-11-29 13:35:00
6:55 AM,19.4,10.4,68,30.20,-9999.0,NE,3.5,-,N/A,,Overcast,50,2012-11-29 13:55:00
7:15 AM,19.4,12.2,74,30.19,-9999.0,Calm,Calm,-,N/A,,Overcast,0,2012-11-29 14:15:00
7:35 AM,17.6,10.4,73,30.20,-9999.0,Calm,Calm,-,N/A,,Scattered Clouds,0,2012-11-29 14:35:00
7:55 AM,19.4,12.2,74,30.22,-9999.0,Calm,Calm,-,N/A,,Scattered Clouds,0,2012-11-29 14:55:00
8:15 AM,21.2,12.2,68,30.21,-9999.0,West,3.5,-,N/A,,Overcast,270,2012-11-29 15:15:00
8:35 AM,23.0,12.2,63,30.22,-9999.0,Calm,Calm,-,N/A,,Overcast,0,2012-11-29 15:35:00
9:15 AM,28.4,14.0,55,30.22,-9999.0,Calm,Calm,-,N/A,,Scattered Clouds,0,2012-11-29 16:15:00
9:35 AM,30.2,14.0,51,30.22,-9999.0,SSE,3.5,-,N/A,,Clear,160,2012-11-29 16:35:00
9:55 AM,32.0,14.0,48,30.22,-9999.0,Calm,Calm,-,N/A,,Clear,0,2012-11-29 16:55:00
10:15 AM,33.8,14.0,44,30.21,-9999.0,Calm,Calm,-,N/A,,Clear,0,2012-11-29 17:15:00
10:55 AM,41.0,15.8,36,30.20,-9999.0,Calm,Calm,-,N/A,,Clear,0,2012-11-29 17:55:00
11:15 AM,50.0,17.6,28,30.19,-9999.0,WSW,17.3,-,N/A,,Clear,240,2012-11-29 18:15:00
11:35 AM,50.0,15.8,26,30.18,-9999.0,SW,9.2,17.3,N/A,,Clear,230,2012-11-29 18:35:00
11:55 AM,50.0,15.8,26,30.16,-9999.0,SW,13.8,21.9,N/A,,Clear,230,2012-11-29 18:55:00
12:15 PM,50.0,14.0,24,30.16,-9999.0,SW,12.7,19.6,N/A,,Clear,220,2012-11-29 19:15:00
12:35 PM,51.8,15.8,24,30.15,-9999.0,SW,12.7,17.3,N/A,,Clear,220,2012-11-29 19:35:00
12:55 PM,51.8,15.8,24,30.15,-9999.0,WSW,13.8,19.6,N/A,,Clear,240,2012-11-29 19:55:00
1:15 PM,51.8,14.0,22,30.14,-9999.0,SW,15.0,23.0,N/A,,Clear,220,2012-11-29 20:15:00
1:35 PM,51.8,14.0,22,30.13,-9999.0,SW,15.0,23.0,N/A,,Clear,230,2012-11-29 20:35:00
1:55 PM,53.6,15.8,22,30.14,-9999.0,WSW,13.8,20.7,N/A,,Clear,240,2012-11-29 20:55:00
2:14 PM,53.6,15.8,22,30.14,-9999.0,WSW,11.5,16.1,N/A,,Scattered Clouds,240,2012-11-29 21:14:00
2:35 PM,53.6,15.8,22,30.14,-9999.0,WSW,11.5,19.6,N/A,,Scattered Clouds,250,2012-11-29 21:35:00
2:54 PM,51.8,15.8,24,30.15,-9999.0,West,11.5,16.1,N/A,,Scattered Clouds,260,2012-11-29 21:54:00
3:15 PM,51.8,15.8,24,30.15,-9999.0,WNW,4.6,-,N/A,,Mostly Cloudy,300,2012-11-29 22:15:00
3:35 PM,50.0,14.0,24,30.15,-9999.0,WNW,4.6,-,N/A,,Scattered Clouds,300,2012-11-29 22:35:00
3:55 PM,50.0,17.6,28,30.16,-9999.0,NW,3.5,-,N/A,,Clear,310,2012-11-29 22:55:00
4:15 PM,46.4,17.6,32,30.17,-9999.0,WNW,3.5,-,N/A,,Mostly Cloudy,290,2012-11-29 23:15:00
4:35 PM,46.4,19.4,34,30.17,-9999.0,NNW,8.1,-,N/A,,Overcast,330,2012-11-29 23:35:00
4:55 PM,42.8,17.6,36,30.17,-9999.0,Calm,Calm,-,N/A,,Mostly Cloudy,0,2012-11-29 23:55:00
5:15 PM,42.8,17.6,36,30.18,-9999.0,West,6.9,-,N/A,,Scattered Clouds,270,2012-11-30 00:15:00
5:35 PM,39.2,17.6,42,30.18,-9999.0,NW,4.6,-,N/A,,Clear,310,2012-11-30 00:35:00
5:55 PM,37.4,15.8,41,30.19,-9999.0,Calm,Calm,-,N/A,,Clear,0,2012-11-30 00:55:00
6:14 PM,35.6,17.6,48,30.19,-9999.0,Calm,Calm,-,N/A,,Clear,0,2012-11-30 01:14:00
6:35 PM,33.8,19.4,56,30.20,-9999.0,East,5.8,-,N/A,,Clear,100,2012-11-30 01:35:00
6:55 PM,32.0,17.6,55,30.20,-9999.0,Calm,Calm,-,N/A,,Clear,0,2012-11-30 01:55:00
7:15 PM,30.2,17.6,60,30.20,-9999.0,Calm,Calm,-,N/A,,Clear,0,2012-11-30 02:15:00
7:34 PM,33.8,17.6,52,30.20,-9999.0,Calm,Calm,-,N/A,,Clear,0,2012-11-30 02:34:00
7:54 PM,30.2,17.6,60,30.21,-9999.0,Calm,Calm,-,N/A,,Clear,0,2012-11-30 02:54:00
8:15 PM,28.4,15.8,59,30.20,-9999.0,Calm,Calm,-,N/A,,Clear,0,2012-11-30 03:15:00
8:35 PM,28.4,17.6,64,30.20,-9999.0,Calm,Calm,-,N/A,,Clear,0,2012-11-30 03:35:00
8:55 PM,23.0,14.0,68,30.21,-9999.0,Calm,Calm,-,N/A,,Clear,0,2012-11-30 03:55:00
9:15 PM,21.2,14.0,74,30.21,-9999.0,Calm,Calm,-,N/A,,Clear,0,2012-11-30 04:15:00
9:35 PM,23.0,15.8,74,30.22,-9999.0,Calm,Calm,-,N/A,,Clear,0,2012-11-30 04:35:00
9:55 PM,23.0,14.0,68,30.22,-9999.0,Calm,Calm,-,N/A,,Clear,0,2012-11-30 04:55:00
10:15 PM,21.2,14.0,74,30.22,-9999.0,Calm,Calm,-,N/A,,Clear,0,2012-11-30 05:15:00
10:35 PM,19.4,14.0,80,30.21,-9999.0,Calm,Calm,-,N/A,,Clear,0,2012-11-30 05:35:00
10:55 PM,21.2,14.0,74,30.21,-9999.0,Calm,Calm,-,N/A,,Clear,0,2012-11-30 05:55:00
11:15 PM,19.4,14.0,80,30.22,-9999.0,Calm,Calm,-,N/A,,Clear,0,2012-11-30 06:15:00
11:35 PM,21.2,14.0,74,30.22,-9999.0,Calm,Calm,-,N/A,,Clear,0,2012-11-30 06:35:00
11:55 PM,19.4,12.2,74,30.24,-9999.0,Calm,Calm,-,N/A,,Clear,0,2012-11-30 06:55:00